User: anonymous   Login
Location: Allie Creek
(37.5926°N, 89.8526°W)
Time: 18:09:19
(UTC+00:00)
Language:

PAYLOAD B - Orbit

View from above orbital plane
View from above orbital plane
View from above satellite
View from above satellite

Ground track
Ground track

The orbit data is extracted from the following two-line orbital elements,

1 27431U 02024B   24062.51008521  .00000084  00000-0  73410-4 0  9992
2 27431  99.0696 100.3104 0016391  74.2630 286.0346 14.09948755121644
Epoch (UTC): 02 March 2024 12:14:31
Eccentricity: 0.0016391
inclination: 99.0696°
perigee height: 847 km
apogee height: 871 km
right ascension of ascending node: 100.3104°
argument of perigee: 74.2630°
revolutions per day: 14.09948755
mean anomaly at epoch: 286.0346°
orbit number at epoch: 12164

The dashed part of the orbit path shows where the satellite is in the earth's shadow,  

DLR